Location: Peebles
(55.6412°N, 3.1714°W)
Time: 02:47:12
(UTC+01:00)

FLOCK 4V 1 - Visible Passes

Search period start: 01 July 2022 00:00
Search period end: 11 July 2022 00:00
Orbit: 519 x 526 km, 97.4° (Epoch: 30 June)

Date Brightness Start Highest point End Pass type
(mag) Time Alt. Az. Time Alt. Az. Time Alt. Az.
01 Jul ? 23:13:39 10° S 23:17:16 41° W 23:20:55 10° NNW visible
02 Jul ? 23:00:50 10° S 23:04:34 55° W 23:08:20 10° NNW visible
05 Jul ? 00:12:05 10° WSW 00:13:57 13° W 00:15:49 10° WNW visible
05 Jul ? 23:58:34 10° SW 00:01:07 17° W 00:03:40 10° NW visible
06 Jul ? 23:45:17 10° SW 23:48:18 22° W 23:51:18 10° NW visible
07 Jul ? 23:32:10 10° SSW 23:35:29 28° W 23:38:49 10° NNW visible
08 Jul ? 23:19:10 10° SSW 23:22:42 36° W 23:26:16 10° NNW visible
09 Jul ? 23:06:14 10° S 23:09:55 48° W 23:13:38 10° NNW visible
10 Jul ? 22:53:23 10° S 22:57:10 65° WSW 23:00:58 10° NNW visible
